Location: Lafig�re
(44.4503°N, 4.0357°E)
Time: 01:27:06
(UTC+00:00)

Transit 4A - Pass Details

Date: 26 January 2021
Orbit: 866 x 979 km, 66.8° (Epoch: 24 February)

Event Time Altitude Azimuth Distance (km) Brightness Sun altitude
Rises 01:02:08 0° 331° (NNW) 3,648 - -60.8°
Reaches altitude 10° 01:05:40 10° 350° (N) 2,680 - -60.5°
Maximum altitude 01:09:48 18° 32° (NNE) 2,127 - -60.0°
Drops below altitude 10° 01:13:52 10° 74° (ENE) 2,621 - -59.6°
Sets 01:17:15 0° 93° (E) 3,537 - -59.2°
